Zurück zum Katalog

CZ-3A DEB

LostHEO
NORAD 40154·DEBRIS·🇨🇳 China

Gestartet Feb 2, 2007 von Xichang Satellite Launch Center

Loading…

Nächste Überflüge (nächste 24 Stunden)

TLE

VeraltetSource: Space-Track

Epoche: Jan 16, 2024, 05:27 UTC

1 40154U 07003AN  24016.22745359  .00000809  00000-0  76399-2 0  9997
2 40154  25.6326 267.3396 7678174 233.4326 335.4617  1.71075227 98557

Verfolge CZ-3A DEB in Echtzeit mit AllMySat

Download on the App Store